Current Weather Conditions: station 63109

sailwx.info

Wind from 220 at 12 knots

Air temperature 13.3° C
Dewpoint 9.4° C

Last reported at 2019-Jun-19 01:00 UTC.
Time now 2019-Jun-19 01:45 UTC

Location: N 59°36' E 001°30'.
View on Google Maps.

See reports from other nearby stations

  
Tides and Currents Weather Stations Pressure Air Temp Water Temp Dewpoint Dewpoint Depression Visibility Wind Speed Wind Dir Waves Ship Positions
date/time (UTC)wind fromknots sea level pressurealtimeterstation pressurevisibilityair tempwater tempwave heightnotes
2019-Jun-19 01:00 220 12 13.3
2019-Jun-19 00:00 240 14 13.0
2019-Jun-18 23:00 220 13 13.0
2019-Jun-18 22:00 220 14 13.1
2019-Jun-18 21:00 220 13 13.6
2019-Jun-18 20:00 210 17 15.5
2019-Jun-18 19:00 210 14 16.6
2019-Jun-18 18:00 210 18 15.8
2019-Jun-18 17:00 210 18 15.4
2019-Jun-18 16:00 210 20 14.8
2019-Jun-18 15:00 210 20 13.9
2019-Jun-18 14:00 200 20 13.6
2019-Jun-18 13:00 200 20 13.4
2019-Jun-18 12:00 200 19 12.5
2019-Jun-18 11:00 190 19 12.7
2019-Jun-18 10:00 190 18 12.5
2019-Jun-18 09:00 190 18 12.3
2019-Jun-18 08:00 190 14 12.4
2019-Jun-18 07:00 200 13 12.6
2019-Jun-18 06:00 210 13 12.7
2019-Jun-18 05:00 230 14 12.2
2019-Jun-18 04:00 230 18 12.2
2019-Jun-18 03:00 220 18 12.3
2019-Jun-18 02:00 210 19 12.6
2019-Jun-18 01:00 210 21 12.6
2019-Jun-18 00:00 200 22 12.3
2019-Jun-17 23:00 190 24 12.0
2019-Jun-17 22:00 190 22 12.0
2019-Jun-17 21:00 190 22 12.0
2019-Jun-17 20:00 190 20 12.2
2019-Jun-17 19:00 190 20 12.4
2019-Jun-17 18:00 200 20 12.9
2019-Jun-17 17:00 200 20 13.5
2019-Jun-17 16:00 200 20 14.2
2019-Jun-17 15:00 210 21 14.2
2019-Jun-17 14:00 210 24 14.8
2019-Jun-17 13:00 200 22 13.0
2019-Jun-17 12:00 200 25 12.5
2019-Jun-17 11:00 190 22 12.4
2019-Jun-17 10:00 190 25 12.1
2019-Jun-17 09:00 180 25 12.3
2019-Jun-17 08:00 180 25 12.1
2019-Jun-17 07:00 160 24 11.9
2019-Jun-17 06:00 160 22 11.9
2019-Jun-17 05:00 150 18 11.8
2019-Jun-17 04:00 160 20 11.7
2019-Jun-17 03:00 160 18 11.6
2019-Jun-17 02:00 170 15 11.6
2019-Jun-17 01:00 180 13 11.5